Zurück zum Katalog

COSMOS 970 DEB

AktivLEO
NORAD 65000·DEBRIS·🇷🇺 Russia

Gestartet Dec 21, 1977 von Baikonur Cosmodrome

Loading…

Nächste Überflüge (nächste 24 Stunden)

TLE

AktuellSource: Space-Track

Epoche: Sep 14, 2026, 15:02 UTC

1 65000U 77121DM  26257.62671184  .00000225  00000-0  60180-3 0  9993
2 65000  65.9706 115.2229 0119230 179.9073 180.2010 13.30683749615930

Verfolge COSMOS 970 DEB in Echtzeit mit AllMySat

Download on the App Store